Regional Weather Roundup
Issued by NWS Little Rock, AR

Home | Current Version | Previous Version | Text Only | Print | Product List | Glossary Off
Versions: 1 2 3 4 5 6 7 8 9 10 11 12 13 14 15 16 17 18 19 20 21 22 23 24 25 26 27 28 29 30 31 32 33 34 35 36 37 38 39 40 41 42 43 44 45 46 47 48 49 50

000
ASUS44 KLZK 231705
RWRLZK

WEATHER ROUNDUP FOR ARKANSAS
NATIONAL WEATHER SERVICE LITTLE ROCK AR
1200 PM CDT WED MAY 23 2018

NOTE: "FAIR" INDICATES FEW OR NO CLOUDS BELOW 12,000 FEET WITH NO
SIGNIFICANT WEATHER AND/OR OBSTRUCTIONS TO VISIBILITY.

ARZ001-003-010-029-231800-
NORTHWEST ARKANSAS

CITY           SKY/WX    TMP DP  RH WIND       PRES   REMARKS
FAYETTEVILLE   CLOUDY    81  67  62 CALM      30.12F THUNDER
FORT SMITH     CLOUDY    82  69  64 MISG      30.10F HX  85
HARRISON       CLOUDY    79  69  71 S7        30.14F
BENTONVILLE    CLOUDY    81  67  62 VRB3      30.15S
ROGERS         CLOUDY    75  69  81 NE7       30.14F
SILOAM SPGS    TSTM      68  67  96 W7        30.17R FOG
HIGHFILL       CLOUDY    75  64  68 SW12G23   30.15R
SPRINGDALE     MOSUNNY   81  68  65 SW6       30.15F
$$

ARZ004-005-016-231800-
NORTH CENTRAL ARKANSAS

CITY           SKY/WX    TMP DP  RH WIND       PRES   REMARKS
BATESVILLE     PTSUNNY   84  72  67 E6        30.11F HX  89
FLIPPIN        MOSUNNY   82  71  69 VRB3      30.12F HX  86
MTN HOME       MOSUNNY   82  70  66 SW6       30.11F HX  86
$$

ARZ040-041-231800-
WEST CENTRAL ARKANSAS

CITY           SKY/WX    TMP DP  RH WIND       PRES   REMARKS
MENA           CLOUDY    82  77  83 NE3       30.13F HX  91
MOUNT IDA      HVY RAIN  77  76  96 CALM      30.10S FOG
$$

ARZ009-017-025-026-028-231800-
NORTHEAST ARKANSAS

CITY           SKY/WX    TMP DP  RH WIND       PRES   REMARKS
CORNING        FAIR      86  75  70 E9        30.11F HX  95
JONESBORO      FAIR      85  75  72 E7        30.10F HX  93
NEWPORT        FAIR      84  72  67 E8        30.10F HX  89
WALNUT RIDGE     N/A     85  73  67 E7        30.11F HX  91
BLYTHEVILLE    FAIR      85  72  65 CALM      30.11F HX  91
NW BLYTHEVILLE PTSUNNY   86  72  62 E6        30.11  HX  92
$$

ARZ022-023-033-042-044-231800-
CENTRAL ARKANSAS

CITY           SKY/WX    TMP DP  RH WIND       PRES   REMARKS
LITTLE ROCK    CLOUDY    84  71  65 VRB3      30.09F HX  89
N LITTLE ROCK    N/A     83  72  69 S3        30.05F HX  88
JACKSONVILLE   PTSUNNY   86  71  60 SE3       30.08F HX  91
CONWAY         PTSUNNY   82  72  69 CALM      30.08F HX  87
SEARCY         LGT RAIN  83  76  79 E9        30.10F HX  91
HOT SPRINGS    TSTM      78  75  90 SW6       30.11F FOG
RUSSELLVILLE   PTSUNNY   83  72  69 CALM      30.09F HX  88
CLINTON        FAIR      82  73  74 CALM      30.11F HX  88
$$

ARZ036-231800-
EAST ARKANSAS

CITY           SKY/WX    TMP DP  RH WIND       PRES   REMARKS
WEST MEMPHIS   FAIR      86  73  65 NE7       30.09F HX  93
$$

ARZ050-053-066-070-073-231800-
SOUTHWEST ARKANSAS

CITY           SKY/WX    TMP DP  RH WIND       PRES   REMARKS
ARKADELPHIA    FAIR      84  70  62 VRB3      30.10F HX  88
CAMDEN         FAIR      84  68  58 NE5       30.09F HX  87
TEXARKANA      SUNNY     82  72  71 VRB3      30.10F HX  87
EL DORADO      FAIR      85  71  63 E6        30.10F HX  90
DE QUEEN       SUNNY     86  71  60 SE5       30.07F HX  91
$$

ARZ056-057-069-231800-
SOUTHEAST ARKANSAS

CITY           SKY/WX    TMP DP  RH WIND       PRES   REMARKS
PINE BLUFF     FAIR      85  70  60 CALM      30.09F HX  89
STUTTGART      FAIR      84  70  62 W3        30.09F HX  88
MONTICELLO     PTSUNNY   81  73  76 SW3       30.09F HX  86

$$





USA.gov is the U.S. government's official web portal to all federal, state and local government web resources and services.